Location: *
(46.1866°S, 178.5290°W)
Time: 14:38:03
(UTC+00:00)

Cosmos 1933 - Pass Details

Date: 19 May 2021
Orbit: 547 x 562 km, 82.5° (Epoch: 21 June)

Event Time Altitude Azimuth Distance (km) Brightness Sun altitude
Rises 06:32:44 0° 194° (SSW) 2,802 7.0 -21.3°
Reaches altitude 10° 06:34:58 10° 198° (SSW) 1,895 6.2 -21.7°
Maximum altitude 06:39:03 54° 274° (W) 700 4.1 -22.4°
Drops below altitude 10° 06:43:03 10° 351° (N) 1,861 6.2 -23.1°
Sets 06:45:14 0° 356° (N) 2,746 7.0 -23.5°
